Wheeler Lake Weather Center

Moon Phase Calendar



Wheeler Lake Water Level
Online Cameras

 


      

Current Conditions in Trinity
7/13/2024 7:30:33 AM

74°F
Feels Like 75
Clear
Humidity
86%
Pressure
30.18"
Wind
1 mph (W)
Dew Point
70°F
UV Index
2/10 (Low)
Visibility
6 mi

Hourly Forecast

Date & Time Sat, Jul 13
7:00 AM
Sat, Jul 13
8:00 AM
Sat, Jul 13
9:00 AM
Sat, Jul 13
10:00 AM
Sat, Jul 13
11:00 AM
Sat, Jul 13
12:00 PM
Sat, Jul 13
1:00 PM
Sat, Jul 13
2:00 PM
Sat, Jul 13
3:00 PM
Sat, Jul 13
4:00 PM
Sat, Jul 13
5:00 PM
Sat, Jul 13
6:00 PM
Sat, Jul 13
7:00 PM
Sat, Jul 13
8:00 PM
Sat, Jul 13
9:00 PM
Sat, Jul 13
10:00 PM
Sat, Jul 13
11:00 PM
Sun, Jul 14
12:00 AM
Sun, Jul 14
1:00 AM
Sun, Jul 14
2:00 AM
Sun, Jul 14
3:00 AM
Sun, Jul 14
4:00 AM
Sun, Jul 14
5:00 AM
Sun, Jul 14
6:00 AM
Sun, Jul 14
7:00 AM
Sun, Jul 14
8:00 AM
Sun, Jul 14
9:00 AM
Sun, Jul 14
10:00 AM
Sun, Jul 14
11:00 AM
Sun, Jul 14
12:00 PM
Sun, Jul 14
1:00 PM
Sun, Jul 14
2:00 PM
Sun, Jul 14
3:00 PM
Sun, Jul 14
4:00 PM
Sun, Jul 14
5:00 PM
Sun, Jul 14
6:00 PM
Sun, Jul 14
7:00 PM
Sun, Jul 14
8:00 PM
Sun, Jul 14
9:00 PM
Sun, Jul 14
10:00 PM
Sun, Jul 14
11:00 PM
Mon, Jul 15
12:00 AM
Mon, Jul 15
1:00 AM
Mon, Jul 15
2:00 AM
Mon, Jul 15
3:00 AM
Mon, Jul 15
4:00 AM
Mon, Jul 15
5:00 AM
Mon, Jul 15
6:00 AM
Condition
Clear

Clear

Clear

Clear

Clear

Clear

Clouds

Clouds

Clouds

Clouds

Clouds

Clouds

Clouds

Clouds

Clouds

Rain

Clouds

Clouds

Clouds

Clouds

Clouds

Clouds

Clouds

Clouds

Clouds

Clouds

Clouds

Clouds

Clouds

Clouds

Clouds

Clouds

Clouds

Clouds

Clouds

Clouds

Clouds

Clouds

Rain

Rain

Clouds

Clouds

Clouds

Clouds

Clouds

Clouds

Clouds

Clouds
Temperature 74°F74°F76°F79°F83°F88°F93°F95°F95°F94°F93°F93°F87°F83°F81°F77°F75°F74°F73°F74°F74°F73°F73°F73°F76°F78°F82°F87°F90°F93°F94°F95°F95°F95°F95°F89°F84°F83°F77°F75°F73°F73°F73°F73°F73°F72°F71°F71°F
Feels Like 75°F75°F77°F79°F87°F92°F97°F97°F97°F95°F95°F96°F92°F86°F83°F78°F75°F74°F74°F74°F74°F73°F73°F74°F77°F79°F85°F90°F95°F97°F97°F98°F98°F97°F96°F93°F87°F84°F77°F76°F74°F74°F74°F74°F74°F73°F72°F72°F
Cloudiness 2%0%3%6%8%10%12%22%25%43%40%41%45%95%89%92%73%70%65%19%56%70%78%82%85%100%100%96%97%94%97%90%75%66%51%45%46%91%78%81%76%68%72%76%78%60%53%44%
Visibility 6 mi6 mi6 mi6 mi6 mi6 mi6 mi6 mi6 mi6 mi6 mi6 mi6 mi6 mi6 mi6 mi6 mi6 mi6 mi6 mi6 mi6 mi6 mi6 mi6 mi6 mi6 mi6 mi6 mi6 mi6 mi6 mi6 mi6 mi6 mi6 mi6 mi6 mi6 mi6 mi6 mi6 mi6 mi6 mi6 mi6 mi6 mi6 mi
Precipitation 0%0%0%0%0%0%0%0%0%0%0%0%0%0%3%24%0%0%0%0%0%0%0%0%0%0%0%0%0%0%0%0%0%0%0%0%0%0%53%54%42%30%18%0%0%0%0%0%
Humidity 84%86%81%73%63%52%41%38%36%36%38%42%56%60%62%71%76%75%75%73%72%73%74%73%73%68%62%54%49%44%41%38%36%35%35%49%57%51%67%73%81%82%82%82%83%85%88%89%
Dew Point 69°F70°F70°F70°F69°F68°F67°F65°F64°F63°F64°F66°F69°F67°F67°F67°F66°F65°F65°F64°F64°F64°F64°F64°F67°F67°F68°F68°F68°F68°F66°F65°F65°F64°F63°F67°F68°F63°F65°F65°F67°F67°F67°F67°F67°F67°F67°F68°F
Pressure 30.18"30.18"30.18"30.18"30.18"30.15"30.15"30.12"30.12"30.09"30.09"30.09"30.09"30.12"30.12"30.12"30.12"30.12"30.12"30.09"30.09"30.09"30.12"30.12"30.12"30.12"30.15"30.12"30.12"30.09"30.09"30.06"30.06"30.03"30"30"30"30"30.03"30.06"30.06"30.06"30.03"30.03"30"30.03"30.03"30.06"
Wind Speed 4.4 mph5.4 mph4.8 mph4.6 mph3.8 mph3.9 mph3.7 mph2.9 mph2 mph2 mph2.8 mph1.6 mph5.2 mph5.5 mph9.8 mph10 mph7.1 mph5.7 mph5.8 mph4.9 mph4.2 mph3.1 mph2 mph1.8 mph1.7 mph2.2 mph2.6 mph1.9 mph1.3 mph2.6 mph4.4 mph4.9 mph5.1 mph5.3 mph5.6 mph7.8 mph4.8 mph3.8 mph4.8 mph8 mph6.2 mph4.5 mph3 mph3 mph3.2 mph3.8 mph3.6 mph2.9 mph
Wind
Direction
45°
NE
38°
NE
30°
NNE
23°
NNE
23°
NNE
19°
NNE

N
346°
NNW
330°
NNW
296°
WNW
293°
WNW
236°
SW
251°
WSW
315°
NW
21°
NNE
36°
NE
43°
NE
50°
NE
51°
NE
62°
ENE
85°
E
75°
ENE
85°
E
135°
SE
76°
ENE
87°
E
64°
ENE
68°
ENE
351°
N
296°
WNW
296°
WNW
304°
NW
306°
NW
315°
NW
324°
NW
241°
WSW
218°
SW
228°
SW
256°
WSW
257°
WSW
266°
W
262°
W
280°
W
287°
WNW
258°
WSW
235°
SW
249°
WSW
274°
W

Daily Forecast

Date High Low Precip. Humidity
Today
Jul 13

Rain
95 °F
72 °F
24%
52%
Sunday
Jul 14

Rain
95 °F
73 °F
54%
44%
Monday
Jul 15

Clouds
94 °F
71 °F
30%
56%
Tuesday
Jul 16

Rain
97 °F
73 °F
79%
40%
Wednesday
Jul 17

Rain
93 °F
71 °F
100%
45%
Thursday
Jul 18

Clouds
83 °F
67 °F
42%
55%
Friday
Jul 19

Clouds
87 °F
67 °F
0%
41%
Saturday
Jul 20

Rain
87 °F
68 °F
36%
63%
Sunday
Jul 21

Rain
91 °F
71 °F
100%
41%
Monday
Jul 22

Rain
90 °F
70 °F
100%
61%
Tuesday
Jul 23

Rain
86 °F
70 °F
100%
66%
Wednesday
Jul 24

Rain
88 °F
69 °F
77%
60%
Thursday
Jul 25

Rain
90 °F
71 °F
100%
53%
Friday
Jul 26

Rain
93 °F
70 °F
100%
53%
Saturday
Jul 27

Rain
86 °F
72 °F
100%
58%
Sunday
Jul 28

Rain
92 °F
72 °F
100%
59%

Temperature 8-14 Day Outlook



Precipitation 8-14 Day Outlook




Quick Links
Wheeler Lake News
Wheeler Lake Photos
Wheeler Lake Videos




About Us
Contact Us
Site Map
Search Site
Advertise With Us
   
www.WheelerLake.info
THE WHEELER LAKE WEBSITE

Copyright 2024, Lakes Online
Privacy    |    Legal